Airport Information

KKLS - Kelso Longview Airport

KKLS 191756Z AUTO 28007KT 10SM OVC049 16/08 A3027 RMK AO2 SLP255 T01610078 10161 20106 58003


  • General Information

  • Coordinates: N 46°7'4"/ W 122°53'54"
  • Location: N/A
  • Surveyed Elevation: 20 MSL

Operations

Flow Name Active Runways Conditions

Green background denotes normal operations.


Common Frequencies

Callsign Frequency Position Name

More at the Document Center


Charts

Name Description Cycle
Name Description Cycle